Temperature
22 24 25 25 25 25 24 22 21 22 22 22 22 22 23 23 23 23 23 23 23 23 22 22 22 22 22 21 21 21 21 21 21 20 20 20 19 19 19 18 18 18 18 17
22 24 24 24 25 25 24 24 22 22 22 22 22 23 22 23 23 22 22 22 22 22 22 22 22 22 22 21 21 21 21 21 21 20 20 20 19 19 18 18 18 17 17 17
20 21 23 23 23 24 23 23 23 22 22 21 21 21 21 22 22 22 22 22 22 22 22 22 22 22 22 21 21 21 21 21 20 20 20 19 19 19 18 18 18 17 17 17
18 20 22 22 23 24 23 22 22 22 21 21 21 21 22 22 22 22 22 22 22 22 22 22 22 22 21 21 21 21 20 20 20 20 19 19 19 18 18 18 17 17 17 17
17 19 20 22 23 23 22 21 21 21 21 21 21 21 21 22 22 22 22 22 22 22 22 22 21 21 21 21 20 20 20 20 20 19 19 19 19 18 18 18 17 17 17 16
17 19 20 21 22 24 22 20 21 21 20 20 21 19 19 21 21 21 21 21 21 21 21 21 21 21 21 20 20 20 20 20 19 19 19 19 19 18 18 17 17 17 16 16
17 18 19 20 22 23 21 20 21 21 21 21 19 19 20 20 21 21 21 21 21 21 21 20 20 20 20 20 19 19 19 19 19 19 19 18 18 18 17 17 17 16 16 16
16 17 18 20 21 20 19 20 21 21 21 21 20 20 20 20 20 20 20 20 20 20 20 20 20 20 19 19 19 19 19 19 18 18 18 18 18 17 17 17 16 16 16 16
16 17 18 20 20 20 21 20 21 21 21 20 20 19 19 19 19 19 19 19 19 19 19 19 19 19 19 19 19 18 18 18 18 18 18 17 17 17 17 16 16 16 16 16
16 17 18 20 20 21 21 21 21 21 20 20 19 19 19 19 18 18 19 19 19 19 19 19 18 18 18 18 18 18 18 18 18 18 17 17 17 17 17 16 16 16 16 15
15 16 18 19 19 20 20 20 20 20 20 19 19 19 19 18 18 18 18 18 18 18 18 18 18 18 18 18 18 18 18 17 17 17 17 17 17 17 16 16 16 16 16 15
15 16 16 18 19 19 19 19 19 19 19 19 19 18 18 18 18 18 18 18 18 18 17 17 17 17 17 17 17 17 17 17 17 17 17 17 16 16 16 16 16 15 15 15
17 17 18 18 18 19 19 18 18 18 18 18 18 18 18 18 17 17 17 17 17 17 17 17 17 17 17 17 16 16 16 16 16 16 16 16 16 16 16 15 15 15 15 15
17 17 17 17 17 18 18 18 18 18 18 18 17 17 17 17 17 17 17 17 17 17 17 16 16 16 16 16 16 16 16 16 16 16 16 16 15 15 15 15 15 15 15 14
17 17 17 17 17 17 17 17 17 17 17 17 17 17 17 17 17 16 16 16 16 16 16 16 16 16 15 15 15 15 15 15 15 15 15 15 15 15 15 15 15 14 14 14
16 16 16 16 16 16 17 17 16 16 16 16 16 16 16 16 16 16 16 16 16 16 16 15 15 15 15 15 15 15 15 15 15 15 15 14 14 14 14 14 14 14 14 14
15 15 16 16 16 16 16 16 16 16 16 16 16 16 16 16 16 15 15 15 15 15 15 15 15 14 14 14 14 14 14 14 14 14 14 14 14 14 14 14 14 14 14 13
15 15 15 15 15 15 15 16 16 16 15 15 15 15 15 15 15 15 15 15 14 14 14 14 14 14 14 14 14 13 13 13 13 13 13 13 13 13 13 13 13 13 13 13
15 15 15 15 15 15 15 15 15 15 15 15 15 15 15 15 14 14 14 14 14 14 14 14 13 13 13 13 13 13 13 13 13 13 13 13 13 13 13 13 13 13 13 13
15 15 15 15 15 15 15 15 15 15 14 14 14 14 14 14 14 14 14 14 13 13 13 13 13 13 13 13 13 13 13 13 13 13 13 13 13 13 12 12 12 12 12 12
14 14 14 14 14 15 14 14 14 14 14 14 14 14 13 13 13 13 13 13 13 13 13 13 13 12 12 12 12 13 13 13 13 13 13 13 12 12 12 12 12 12 12 12
14 14 14 14 14 14 14 14 14 14 14 13 13 13 13 13 13 13 13 13 12 12 12 12 12 12 12 12 12 12 12 12 12 12 12 12 12 12 12 12 12 12 12 12
13 13 13 14 14 13 13 13 13 13 13 13 13 13 13 12 13 12 12 12 12 12 12 12 12 12 12 12 12 12 12 12 12 12 12 12 12 12 12 11 11 11 11 11
13 13 13 13 13 13 13 13 13 13 13 12 12 12 12 12 12 12 12 12 12 12 12 12 12 12 12 12 12 12 12 12 12 12 12 12 12 11 11 11 11 11 11 11
13 13 13 13 13 12 12 12 12 12 12 12 12 12 12 12 12 12 12 12 12 12 12 11 11 11 11 11 11 12 12 12 11 11 12 11 11 11 11 11 11 11 11 11
13 12 12 12 12 12 12 12 12 12 12 12 12 12 12 12 11 11 11 11 11 11 11 11 11 11 11 11 11 11 11 11 11 11 11 11 11 11 11 11 11 11 10 10
12 12 12 12 12 12 12 12 12 12 12 12 11 11 11 11 11 11 11 11 11 11 11 11 11 11 11 11 11 11 11 11 11 11 11 11 11 11 10 10 10 10 10 10
Wind_Speed
4 4 2 2 4 2 1 5 7 7 6 6 6 7 7 8 7 7 6 6 8 8 7 6 6 6 7 7 7 8 8 8 8 7 6 5 4 4 3 3 3 3 3 2
3 3 3 3 4 2 1 2 4 5 3 5 3 5 6 7 9 7 6 6 6 7 7 7 7 7 6 6 6 7 8 9 7 6 6 5 5 4 4 3 3 3 3 3
2 5 3 3 3 1 1 2 5 5 6 4 6 6 7 7 8 7 6 5 5 6 7 7 7 6 6 6 6 6 7 7 7 7 6 6 5 4 4 4 3 3 3 3
0 3 3 7 3 2 3 1 1 5 5 7 8 6 5 6 8 6 5 4 4 4 4 4 4 4 4 4 4 5 5 6 6 6 6 5 5 5 4 4 4 4 4 3
2 2 4 5 3 1 2 2 1 4 5 6 8 8 5 2 5 6 5 4 3 3 4 4 4 4 5 4 3 3 4 5 6 7 6 6 6 5 4 4 4 4 3 4
3 3 5 6 6 2 5 1 3 3 5 5 5 4 1 1 5 6 5 4 4 3 4 4 3 4 5 4 3 4 5 6 6 6 6 6 6 5 4 4 4 3 3 3
4 4 5 6 6 2 3 5 2 3 4 4 3 5 5 3 4 5 5 4 4 4 4 2 3 4 5 3 3 4 3 3 4 5 6 6 5 4 4 4 3 3 3 3
4 3 6 5 2 2 5 3 3 4 4 5 5 6 5 5 4 5 5 5 4 4 3 1 2 4 3 2 2 2 2 2 3 4 5 4 4 4 4 4 4 3 3 3
6 6 5 2 3 4 5 4 3 4 4 6 6 5 4 4 3 3 4 3 3 3 2 2 2 3 3 2 1 1 1 1 2 2 3 4 5 5 4 4 4 4 4 4
1 2 1 0 1 2 4 4 4 4 5 5 6 5 4 3 3 2 2 2 2 3 3 2 1 1 1 1 1 1 0 1 1 2 3 3 4 4 4 4 4 4 4 4
0 2 3 4 3 2 3 4 4 4 5 4 5 5 4 3 2 1 1 1 2 3 2 1 0 0 0 0 1 1 0 1 2 2 3 3 3 3 4 5 6 6 5 5
4 4 2 3 2 1 3 3 3 4 4 4 4 4 3 2 2 2 2 2 2 2 2 1 0 1 1 1 1 1 1 2 2 2 2 3 2 1 1 2 4 6 7 6
4 4 3 2 1 1 2 2 2 3 4 4 3 4 4 2 2 2 2 2 3 3 2 1 0 1 2 1 0 1 2 3 2 2 2 3 3 3 3 2 2 3 5 6
1 1 1 1 1 0 2 2 3 3 3 3 3 3 3 3 2 2 3 3 3 2 2 1 0 2 3 1 1 1 2 3 3 3 3 3 3 4 4 4 3 3 3 4
3 1 2 1 0 1 1 3 3 2 1 1 2 3 3 3 3 3 3 2 2 1 1 1 1 3 3 2 1 2 2 3 3 3 2 3 3 3 3 3 3 2 1 2
3 3 1 1 0 1 1 2 2 2 2 2 2 3 3 3 2 2 2 2 2 1 2 1 2 4 3 2 1 2 3 4 3 2 2 2 2 2 3 4 4 3 3 3
2 2 2 1 2 2 2 3 4 4 4 4 4 4 2 2 1 1 2 2 3 2 2 2 3 3 3 2 2 2 3 3 3 2 2 2 2 3 3 3 4 4 4 4
6 6 5 4 4 4 4 3 3 4 4 5 4 3 3 3 4 4 4 3 2 1 2 3 3 2 3 3 2 2 2 2 2 2 2 2 2 3 3 3 3 3 2 2
4 3 3 3 3 3 4 4 3 3 3 3 4 4 4 4 4 4 3 2 2 3 4 4 3 2 3 4 3 2 2 2 2 3 3 3 3 3 3 3 3 3 3 2
2 2 2 2 2 3 3 3 2 2 2 2 3 3 3 4 4 4 3 2 4 4 4 4 3 3 3 4 3 2 3 3 3 3 3 3 3 3 3 3 3 3 3 3
2 3 3 2 3 2 2 2 2 3 3 2 3 4 4 4 4 4 3 3 5 4 4 4 3 3 3 3 3 2 2 3 3 3 3 3 3 3 3 3 3 3 3 3
2 2 2 2 2 2 3 3 3 3 3 3 3 3 4 4 4 4 4 5 5 4 3 3 3 4 4 3 2 2 2 3 3 3 2 3 3 3 3 3 3 3 3 3
3 3 3 3 3 4 4 3 4 4 4 4 4 4 4 4 3 4 4 4 4 5 4 3 4 4 3 2 2 2 2 3 3 3 3 3 3 3 3 3 3 3 3 3
3 3 3 3 1 1 2 2 2 2 3 3 3 4 4 3 2 2 3 5 5 5 3 3 4 4 2 1 1 2 2 3 3 3 3 3 3 3 3 3 3 3 3 3
2 2 1 1 1 1 2 2 1 1 0 1 2 2 3 3 3 2 2 3 4 4 2 3 4 4 3 2 2 3 3 3 3 3 2 2 2 3 3 3 3 3 3 3
2 2 2 2 1 1 1 1 1 1 0 0 1 1 1 1 2 2 1 2 3 3 2 2 2 3 2 2 3 3 2 2 2 2 2 1 2 2 2 2 3 3 3 3
2 1 1 1 1 1 1 1 1 1 1 1 0 1 1 1 1 2 2 2 2 2 2 1 1 1 2 1 1 1 1 1 1 1 1 1 2 2 2 3 2 3 3 3
Wind_Direction
227 254 288 304 298 325 133 179 180 205 202 224 200 174 157 149 142 130 132 145 156 164 169 170 174 182 183 187 187 183 180 188 197 199 196 194 199 205 204 198 200 187 182 193
346 333 348 335 318 289 251 148 162 160 212 221 166 125 127 136 136 137 146 153 163 167 172 174 177 184 186 187 186 178 184 196 198 193 193 197 203 203 196 197 195 180 188 193
300 315 8 302 281 195 217 198 165 188 209 161 118 122 137 136 133 142 152 150 160 172 179 184 188 185 183 188 175 172 187 194 193 192 195 201 201 194 198 198 190 194 204 199
64 28 234 247 261 119 107 32 148 156 158 151 146 141 130 131 133 136 146 150 158 162 171 179 176 166 167 150 154 168 182 188 186 187 193 193 191 196 199 191 192 205 210 208
122 193 268 293 311 323 115 2 346 138 137 135 127 89 50 77 135 147 149 145 151 148 153 149 148 150 136 129 142 164 182 189 190 188 190 192 198 204 198 186 194 206 207 205
144 172 225 251 289 295 103 49 309 119 140 148 122 117 197 129 110 110 104 102 105 104 110 125 146 143 135 139 155 197 200 198 191 185 186 193 201 200 190 185 200 204 214 217
174 208 255 269 296 19 125 219 245 113 133 132 137 172 166 121 93 101 101 95 94 93 97 127 146 134 136 146 195 225 211 195 192 190 194 196 194 183 174 183 188 194 213 230
159 183 244 289 23 129 200 195 120 97 102 116 120 114 111 104 99 94 93 87 92 92 85 89 116 128 137 177 221 225 193 181 197 202 199 190 174 179 178 177 185 204 218 239
182 205 235 246 165 178 154 119 103 103 110 119 119 119 119 117 118 121 114 109 108 108 89 61 78 116 151 223 204 164 150 193 209 208 198 184 181 188 189 189 196 211 214 230
65 281 263 45 133 114 119 126 122 124 129 127 130 137 139 139 142 141 138 123 112 101 87 52 37 87 180 222 157 125 146 246 221 206 205 195 188 192 195 203 209 212 215 225
31 288 14 23 41 85 84 87 90 104 119 133 130 135 139 142 150 169 168 129 117 122 121 123 71 35 300 270 124 138 235 256 240 223 206 202 203 207 206 210 209 206 216 216
228 239 186 252 283 102 97 90 96 101 96 116 133 145 142 153 161 156 157 145 137 138 148 175 46 336 323 305 152 168 231 266 247 239 227 203 197 248 309 225 229 222 218 214
221 250 229 235 315 67 109 112 111 125 139 137 145 152 148 145 148 161 182 185 182 190 189 185 14 329 304 279 152 201 239 260 259 244 230 211 201 204 234 293 306 259 243 234
266 22 328 319 286 290 117 108 107 108 130 151 151 147 141 146 160 176 204 212 196 184 185 177 223 285 284 275 261 275 270 265 259 242 226 221 216 216 214 220 251 274 279 260
313 322 222 227 266 202 128 103 101 121 148 167 156 159 157 165 193 212 214 188 149 150 203 224 269 284 295 292 272 284 285 275 273 259 238 228 221 214 218 218 222 238 271 289
294 330 302 81 34 215 146 130 157 198 207 210 200 199 191 180 188 206 202 163 152 192 233 233 264 280 295 293 286 291 287 288 290 275 252 228 219 214 223 219 219 223 230 234
239 265 250 245 254 245 220 205 203 216 222 222 215 207 187 171 183 225 234 195 181 209 222 223 255 275 282 279 273 275 286 293 294 292 246 223 215 211 221 221 217 221 230 221
203 219 218 217 227 243 247 237 224 223 229 229 210 190 189 193 206 223 223 203 188 255 261 245 247 268 275 272 260 257 256 260 271 263 250 233 227 223 215 219 221 220 225 214
216 232 246 245 234 231 232 236 233 225 225 212 199 205 210 207 206 209 206 190 206 254 269 259 256 264 273 275 273 253 248 245 249 254 245 235 230 222 216 213 223 221 208 204
253 236 245 267 271 250 238 230 216 216 229 215 204 208 212 219 210 202 195 216 233 236 241 240 243 253 260 268 265 246 244 240 235 245 247 240 232 231 224 212 210 216 213 206
296 264 254 258 264 261 240 215 202 230 241 225 217 222 221 224 216 204 200 242 262 249 238 237 235 242 247 255 259 242 234 237 237 239 241 240 231 226 222 213 209 214 215 207
300 288 266 261 274 279 248 221 208 208 218 225 228 227 224 226 222 217 219 226 237 231 227 235 238 242 250 250 234 231 226 228 236 237 232 230 219 213 217 213 207 205 199 197
287 279 264 250 234 231 235 229 212 198 203 212 216 222 224 225 216 210 236 238 222 219 218 231 236 249 258 243 229 222 224 232 238 235 231 227 219 209 208 208 202 196 194 197
277 272 252 241 219 192 230 245 223 209 203 212 217 215 213 218 246 234 213 212 209 212 216 223 227 233 229 225 223 230 236 238 242 239 233 227 220 206 200 200 199 199 197 191
279 285 275 244 252 237 223 221 259 310 333 249 242 233 223 208 210 220 205 194 191 195 214 227 225 228 226 232 233 245 249 249 246 240 231 215 207 199 193 191 191 186 183 185
263 260 255 243 233 232 212 188 194 225 227 303 300 260 234 220 199 189 186 196 196 204 221 234 229 230 227 229 235 244 251 255 249 242 226 207 190 183 186 190 190 181 180 176
328 328 335 338 310 282 243 180 174 197 180 157 205 276 195 175 175 187 199 211 223 221 227 239 229 219 211 215 226 238 244 251 248 235 240 222 201 194 196 184 169 159 157 156
Height
1495 1491 1489 1491 1490 1489 1493 1500 1509 1506 1502 1496 1491 1491 1492 1494 1496 1498 1500 1502 1504 1507 1508 1510 1512 1513 1514 1515 1517 1519 1521 1522 1523 1524 1525 1526 1526 1527 1527 1527 1528 1528 1528 1527
1497 1490 1489 1491 1488 1487 1489 1490 1495 1496 1498 1489 1488 1489 1492 1493 1495 1498 1500 1501 1503 1505 1507 1508 1510 1511 1512 1513 1515 1516 1518 1519 1520 1521 1522 1523 1524 1524 1525 1525 1525 1525 1525 1525
1508 1497 1493 1501 1490 1488 1489 1488 1490 1496 1493 1488 1489 1490 1491 1493 1495 1497 1499 1501 1502 1504 1505 1507 1508 1509 1510 1511 1512 1514 1515 1517 1518 1519 1520 1521 1521 1522 1522 1522 1522 1522 1522 1522
1511 1507 1515 1498 1482 1481 1485 1487 1484 1485 1486 1487 1488 1490 1491 1493 1495 1497 1499 1500 1502 1503 1504 1506 1507 1507 1509 1510 1511 1512 1513 1514 1515 1516 1517 1518 1519 1519 1519 1519 1519 1519 1519 1519
1516 1516 1508 1492 1482 1482 1487 1492 1486 1485 1486 1488 1489 1491 1494 1495 1495 1497 1498 1499 1500 1502 1503 1504 1505 1506 1507 1508 1509 1510 1511 1511 1512 1513 1514 1515 1515 1515 1516 1516 1516 1516 1516 1515
1513 1514 1515 1496 1481 1479 1483 1497 1488 1486 1487 1488 1488 1496 1497 1495 1495 1496 1497 1498 1499 1500 1502 1502 1503 1504 1505 1506 1507 1507 1508 1508 1509 1510 1511 1511 1512 1512 1512 1513 1513 1513 1513 1512
1510 1511 1503 1487 1480 1479 1497 1498 1488 1486 1486 1487 1488 1490 1493 1494 1495 1495 1496 1497 1498 1499 1500 1501 1501 1502 1502 1502 1503 1504 1505 1506 1507 1507 1508 1509 1509 1509 1509 1510 1510 1509 1509 1509
1508 1512 1507 1484 1482 1487 1489 1485 1485 1486 1487 1487 1488 1489 1491 1492 1494 1495 1496 1496 1497 1498 1498 1499 1499 1500 1500 1500 1502 1503 1503 1503 1504 1505 1505 1506 1506 1506 1506 1506 1506 1506 1506 1505
1497 1498 1487 1483 1483 1484 1484 1484 1485 1485 1486 1487 1488 1489 1491 1492 1494 1495 1495 1495 1496 1496 1497 1497 1498 1498 1499 1499 1500 1501 1500 1501 1501 1502 1502 1503 1503 1503 1503 1503 1503 1502 1502 1501
1491 1488 1485 1483 1483 1483 1483 1484 1484 1485 1487 1488 1488 1489 1490 1492 1493 1494 1495 1495 1495 1495 1495 1496 1496 1497 1497 1498 1498 1498 1498 1498 1499 1499 1499 1499 1499 1499 1499 1499 1499 1498 1498 1497
1491 1487 1485 1483 1484 1484 1484 1484 1485 1485 1486 1487 1488 1489 1490 1491 1492 1493 1494 1494 1494 1494 1494 1494 1495 1495 1495 1495 1495 1495 1496 1496 1496 1496 1496 1496 1496 1495 1495 1495 1496 1495 1495 1494
1491 1486 1486 1485 1484 1484 1484 1484 1484 1484 1485 1486 1487 1488 1489 1490 1491 1492 1493 1493 1493 1492 1492 1492 1493 1493 1493 1493 1493 1493 1493 1493 1492 1492 1492 1492 1492 1492 1492 1492 1492 1492 1492 1491
1484 1484 1484 1483 1484 1483 1483 1484 1484 1484 1485 1485 1486 1487 1488 1489 1490 1491 1491 1491 1491 1491 1491 1491 1491 1491 1491 1491 1490 1490 1490 1489 1489 1489 1489 1489 1488 1488 1488 1488 1488 1488 1488 1487
1481 1481 1482 1481 1482 1482 1482 1483 1483 1484 1485 1485 1486 1486 1487 1488 1488 1489 1489 1489 1489 1489 1489 1488 1488 1488 1488 1488 1487 1487 1487 1486 1485 1485 1485 1485 1485 1485 1485 1484 1484 1483 1483 1483
1479 1479 1480 1479 1480 1481 1481 1481 1481 1482 1483 1484 1484 1485 1485 1485 1486 1487 1487 1487 1486 1486 1486 1486 1486 1486 1485 1485 1484 1483 1483 1482 1482 1481 1481 1481 1481 1480 1480 1480 1480 1479 1479 1479
1477 1477 1478 1477 1478 1478 1479 1479 1480 1480 1481 1481 1482 1482 1482 1483 1483 1483 1483 1484 1483 1483 1483 1482 1482 1482 1482 1481 1480 1480 1479 1478 1478 1477 1477 1477 1476 1476 1476 1475 1475 1474 1474 1474
1474 1474 1475 1475 1475 1476 1476 1477 1477 1478 1478 1479 1479 1479 1479 1479 1480 1480 1480 1480 1480 1479 1479 1479 1478 1478 1478 1477 1477 1476 1475 1474 1474 1473 1473 1472 1472 1472 1472 1471 1470 1470 1470 1470
1471 1472 1472 1472 1472 1473 1473 1474 1474 1475 1475 1475 1476 1475 1475 1475 1475 1475 1476 1476 1476 1475 1475 1475 1474 1474 1473 1473 1473 1472 1471 1471 1470 1470 1469 1469 1469 1468 1468 1467 1466 1466 1466 1466
1467 1468 1468 1468 1468 1469 1469 1469 1470 1470 1471 1471 1471 1471 1471 1471 1471 1472 1472 1471 1471 1470 1470 1471 1470 1470 1470 1469 1469 1468 1468 1468 1467 1466 1466 1465 1465 1464 1464 1463 1463 1461 1462 1461
1464 1464 1464 1465 1465 1465 1465 1465 1466 1466 1467 1466 1466 1466 1466 1467 1467 1467 1467 1467 1467 1467 1467 1467 1466 1466 1466 1466 1465 1465 1464 1464 1463 1463 1462 1461 1461 1461 1460 1460 1459 1458 1458 1457
1461 1461 1461 1461 1461 1461 1462 1462 1462 1462 1462 1462 1462 1462 1462 1462 1462 1462 1462 1462 1462 1463 1463 1463 1463 1462 1463 1462 1462 1461 1461 1460 1459 1459 1458 1457 1457 1456 1456 1456 1456 1456 1455 1454
1459 1458 1458 1458 1457 1457 1458 1458 1458 1458 1457 1457 1457 1457 1457 1457 1457 1457 1457 1457 1458 1459 1459 1459 1459 1459 1459 1459 1458 1458 1457 1456 1456 1455 1454 1454 1453 1453 1453 1453 1453 1452 1452 1452
1455 1456 1455 1455 1454 1454 1454 1453 1453 1453 1453 1453 1453 1452 1452 1452 1452 1452 1452 1453 1454 1455 1455 1455 1455 1455 1456 1455 1455 1454 1454 1453 1452 1452 1451 1450 1450 1450 1450 1450 1449 1449 1449 1448
1453 1452 1452 1451 1451 1450 1449 1449 1449 1449 1449 1449 1448 1449 1449 1449 1449 1449 1449 1450 1450 1451 1452 1452 1452 1452 1452 1452 1452 1451 1450 1449 1449 1448 1447 1447 1446 1446 1446 1446 1446 1446 1446 1446
1449 1449 1449 1448 1448 1447 1447 1446 1446 1446 1445 1445 1445 1446 1446 1447 1447 1447 1447 1447 1448 1449 1449 1449 1449 1449 1449 1449 1449 1448 1447 1446 1445 1444 1444 1444 1443 1443 1443 1443 1443 1442 1443 1443
1447 1447 1447 1446 1446 1445 1445 1444 1444 1444 1443 1443 1443 1444 1444 1444 1445 1445 1446 1446 1446 1446 1446 1446 1446 1446 1446 1446 1446 1445 1444 1443 1442 1442 1441 1441 1441 1440 1440 1441 1440 1440 1441 1440
1445 1445 1445 1445 1444 1444 1443 1443 1443 1443 1443 1443 1443 1443 1443 1443 1443 1444 1444 1444 1444 1444 1444 1444 1444 1444 1444 1444 1443 1442 1442 1441 1440 1440 1439 1439 1438 1438 1438 1438 1438 1438 1438 1438